Wind_Speed
24 23 22 23 22 21 21 20 20 20 20 20 20 20 20 21 22 21 21 21 22 22 22 21 21 21 22 20 19 19 18 17 18 18 18 18 18 18 18 18 18 19 19
25 24 24 24 24 23 23 22 21 20 20 21 22 22 22 22 22 23 23 23 23 23 23 23 23 22 21 21 21 20 20 20 19 19 19 19 19 19 19 20 20 19 19
27 27 25 25 24 24 23 23 22 21 22 22 23 23 22 23 23 23 24 24 23 23 24 24 23 23 22 21 21 21 20 20 21 21 20 20 20 20 20 20 20 20 20
27 27 26 25 25 24 24 24 23 23 23 23 24 24 23 23 24 25 25 24 24 24 24 24 23 24 24 23 23 22 22 21 21 21 21 21 21 22 22 21 20 20 20
28 27 26 26 25 25 24 24 24 25 25 25 26 25 25 24 25 25 26 25 24 24 24 25 25 25 25 25 24 24 24 23 22 22 21 21 21 22 22 22 22 22 22
28 27 26 26 27 26 25 26 26 26 26 27 26 26 25 25 25 25 25 25 25 24 24 25 26 26 26 26 25 25 25 25 24 24 23 22 22 22 22 22 22 22 23
28 27 27 26 26 27 27 27 27 27 27 28 27 27 26 26 26 26 25 25 25 25 25 26 26 26 26 26 26 26 25 25 25 24 24 23 22 22 23 23 23 23 23
29 28 27 26 27 27 27 26 27 27 27 27 27 27 27 27 26 26 26 26 26 26 26 26 27 27 27 27 26 26 25 25 24 23 23 23 22 22 22 23 23 23 23
28 29 28 27 27 28 27 27 27 27 27 27 27 26 26 26 26 26 26 26 26 26 26 26 26 26 26 26 26 27 26 25 24 23 23 23 23 22 22 22 23 24 24
28 28 28 28 27 27 27 28 28 28 28 28 28 27 27 26 26 26 26 25 25 26 26 26 25 25 25 26 26 26 26 25 24 23 22 23 23 22 22 22 22 23 23
27 28 28 28 28 27 27 27 28 28 29 29 28 28 27 26 26 26 26 26 25 25 25 25 25 25 26 26 26 25 25 25 25 24 23 22 23 22 22 22 22 22 23
27 28 28 28 28 28 27 27 28 28 28 28 28 27 27 26 26 27 26 25 25 25 25 25 25 25 25 25 24 24 25 25 24 24 23 23 23 23 23 23 23 23 23
27 27 27 28 28 28 28 27 27 27 27 27 27 27 27 27 27 27 27 26 26 26 25 25 25 24 24 24 24 24 24 24 24 24 24 23 24 23 22 22 22 23 23
27 27 27 27 27 27 27 27 26 26 26 26 26 26 26 26 26 26 26 26 25 26 26 25 25 25 25 24 24 23 23 23 23 24 24 23 23 22 21 22 22 23 24
26 26 26 26 26 27 27 26 26 26 26 26 25 25 25 25 25 26 26 26 25 25 25 25 25 25 25 24 23 23 23 23 23 23 23 23 23 23 23 23 23 24 24
25 25 26 25 26 26 26 25 25 25 25 25 24 24 23 23 23 24 24 24 25 24 24 25 25 24 24 23 23 23 22 23 22 22 23 23 23 23 23 23 23 23 24
25 25 25 25 25 25 24 24 25 25 24 24 24 23 23 22 23 23 24 24 24 24 24 23 24 24 24 23 23 23 22 23 23 22 23 23 23 22 23 23 23 23 23
25 25 25 24 24 23 23 22 23 24 24 24 24 23 22 22 23 22 23 23 23 24 23 23 23 24 24 23 23 23 23 23 23 23 23 23 23 23 23 23 23 22 23
24 24 24 24 23 23 22 22 23 23 24 24 23 23 22 22 22 22 22 22 22 23 23 23 22 23 24 23 23 23 23 23 23 23 23 23 24 24 23 23 23 23 22
23 23 23 23 23 22 22 22 22 23 23 23 22 22 21 21 21 21 21 21 21 21 22 22 22 22 23 23 23 23 23 22 23 23 23 23 23 23 22 22 23 23 24
22 22 22 22 23 23 22 22 22 22 22 21 21 21 21 21 22 22 21 21 20 20 21 21 21 21 22 22 22 22 21 21 21 21 21 21 21 21 22 22 22 23 23
21 21 22 22 22 22 22 21 21 21 21 20 20 21 21 21 21 21 21 21 21 20 21 21 21 21 20 20 21 20 20 20 19 19 19 19 20 20 20 21 21 21 21
19 20 20 21 21 21 21 20 21 20 20 20 20 20 20 20 20 20 20 19 19 19 20 20 20 19 20 20 20 20 20 20 19 18 18 18 18 19 19 20 20 19 19
18 18 19 18 18 18 19 19 19 19 19 19 20 19 19 19 19 19 19 18 18 19 20 20 20 19 19 19 19 19 18 18 17 17 17 17 17 17 17 18 18 19 19
15 16 16 16 16 17 18 18 17 17 18 18 18 18 17 17 17 17 17 18 18 18 19 19 19 19 19 19 18 18 18 18 17 16 16 16 16 17 17 17 18 18 19
14 14 14 14 14 15 16 16 16 16 16 16 16 16 16 15 15 14 14 15 16 17 17 17 18 18 18 17 17 17 17 17 16 16 16 15 16 16 16 16 16 17 17
Wind_Direction
280 280 281 281 281 280 281 282 282 285 282 278 274 274 274 274 274 273 271 270 270 270 270 270 270 270 267 265 265 264 261 259 256 252 250 250 250 250 251 249 250 252 252
279 278 281 282 282 281 282 282 283 283 282 279 276 276 276 277 277 275 272 270 271 271 271 269 267 268 269 266 266 267 264 261 259 254 255 255 251 251 252 253 252 253 254
280 277 281 282 282 282 282 282 282 283 282 281 280 279 277 278 277 276 275 273 271 270 271 268 266 266 266 266 265 266 266 264 262 259 258 258 255 253 254 253 254 253 254
281 279 281 281 282 282 282 281 282 282 282 282 282 281 280 279 278 276 275 275 272 270 270 269 268 265 263 264 264 263 264 266 265 263 261 258 257 255 254 253 253 254 254
280 279 280 280 282 282 281 280 280 281 283 283 283 282 280 279 279 277 276 274 271 271 270 268 268 267 265 264 264 264 266 268 267 266 264 261 259 256 254 254 254 256 257
278 280 281 281 280 281 280 278 280 281 283 284 283 282 280 278 279 277 274 272 271 271 270 268 266 267 265 265 265 266 267 267 268 267 265 264 264 261 256 255 254 255 257
279 281 279 280 280 280 280 280 280 281 282 283 281 280 280 279 276 274 274 273 273 272 271 270 267 267 266 266 266 267 268 265 265 267 265 264 264 264 262 259 257 257 259
281 280 280 279 280 280 280 279 279 280 282 282 281 279 278 276 275 274 273 273 273 272 270 269 267 266 266 266 268 268 268 265 264 266 264 264 265 263 261 260 259 259 261
282 279 279 278 279 279 279 279 279 279 281 282 281 281 279 275 273 273 272 271 271 272 271 268 266 266 266 265 267 267 267 266 264 264 265 265 265 262 261 260 260 259 262
281 280 279 279 278 279 279 281 281 278 280 280 279 280 279 275 274 273 272 271 271 272 272 269 266 265 265 265 266 266 264 265 261 261 263 265 263 262 263 262 261 261 262
283 282 282 282 280 280 281 282 282 280 279 278 278 278 277 276 275 275 273 271 272 271 271 270 267 266 266 265 264 264 263 263 262 261 261 264 264 264 263 264 262 262 262
285 285 284 283 281 279 280 281 283 282 279 278 277 276 274 274 274 274 272 272 271 270 270 270 270 268 266 264 263 262 263 262 261 261 261 264 266 264 264 264 263 264 263
287 286 283 282 281 280 279 280 282 283 281 279 277 276 273 272 272 272 271 270 270 269 269 268 268 268 267 265 264 264 263 262 261 262 262 265 265 264 264 263 263 264 264
286 284 282 282 281 280 279 280 281 282 282 280 278 276 273 271 270 272 272 271 269 269 268 266 265 267 268 265 263 263 263 263 265 265 264 264 263 262 263 263 263 264 264
286 284 284 284 283 280 279 280 281 283 282 280 279 276 273 271 270 271 271 270 269 269 267 265 265 264 265 265 262 263 264 264 265 264 263 264 263 261 263 262 263 264 265
289 288 288 284 283 283 279 278 281 282 281 280 279 277 274 272 271 271 270 269 268 268 268 265 265 264 264 264 263 264 265 263 264 263 263 262 260 260 262 263 263 264 266
288 288 290 286 284 282 280 278 278 278 280 279 277 276 275 272 270 269 268 267 267 267 266 263 262 261 259 261 262 262 261 262 263 263 262 261 259 260 260 261 262 263 264
288 288 288 285 284 283 283 281 279 278 277 278 277 276 275 272 271 269 268 266 266 265 263 261 262 261 260 261 262 261 259 260 261 263 262 260 259 260 261 261 262 263 263
287 288 288 284 283 283 283 284 281 280 279 279 278 275 273 272 271 271 270 266 264 263 261 261 259 258 259 262 262 263 260 260 262 263 263 262 261 259 260 261 261 261 261
289 289 289 287 284 283 283 283 282 281 279 278 278 276 273 271 271 272 272 270 265 262 261 261 258 258 260 260 262 262 261 262 264 264 262 262 260 259 260 260 260 260 261
290 290 290 289 285 284 283 283 283 283 281 279 279 277 274 273 272 271 273 272 268 264 262 262 259 259 260 261 260 260 261 262 263 265 265 262 260 259 258 259 258 259 261
290 290 290 289 286 285 285 285 285 284 283 282 281 278 275 273 273 271 271 271 269 266 264 261 259 260 260 259 258 258 258 260 262 263 264 263 261 258 258 258 258 259 261
290 290 290 289 286 285 286 285 284 284 284 284 282 279 276 273 272 269 266 268 266 264 263 261 260 261 259 258 258 258 258 259 262 262 262 262 261 259 257 258 258 258 261
294 292 290 289 288 287 287 286 285 285 285 286 285 281 277 275 271 268 265 264 264 263 262 262 261 260 260 257 255 257 257 257 257 258 259 262 261 259 258 258 259 262 263
301 299 295 292 290 289 288 285 285 286 287 288 287 283 279 277 272 269 266 262 263 262 261 261 259 258 259 257 256 256 256 256 256 257 259 260 259 259 259 261 262 261 262
310 307 301 297 296 294 292 290 290 291 290 289 289 286 284 280 274 266 265 263 262 261 260 260 257 256 256 255 253 253 255 254 254 256 258 256 254 257 260 262 263 261 261
Height
5862 5861 5861 5860 5860 5859 5858 5858 5857 5856 5855 5855 5855 5855 5855 5855 5855 5854 5854 5855 5855 5855 5856 5857 5857 5857 5857 5858 5859 5859 5859 5860 5860 5861 5862 5863 5863 5864 5865 5866 5867 5868 5868
5857 5856 5856 5855 5855 5854 5853 5853 5852 5851 5851 5850 5850 5851 5850 5850 5850 5850 5849 5850 5850 5851 5851 5852 5852 5852 5853 5853 5854 5854 5855 5856 5856 5857 5858 5858 5859 5860 5861 5862 5863 5863 5864
5851 5850 5850 5850 5849 5849 5848 5847 5847 5846 5846 5846 5846 5845 5845 5845 5845 5845 5845 5845 5845 5845 5846 5846 5847 5847 5848 5848 5849 5850 5850 5851 5852 5852 5853 5854 5854 5855 5856 5857 5858 5858 5859
5845 5845 5844 5844 5844 5843 5843 5842 5842 5842 5841 5841 5840 5840 5840 5840 5839 5839 5839 5839 5840 5840 5840 5840 5841 5841 5842 5843 5844 5845 5845 5846 5847 5847 5848 5849 5850 5850 5851 5852 5853 5854 5854
5839 5839 5839 5839 5838 5837 5837 5836 5836 5836 5835 5835 5835 5834 5834 5834 5834 5833 5833 5834 5834 5835 5835 5835 5835 5835 5836 5838 5839 5839 5840 5841 5841 5842 5843 5843 5844 5845 5846 5847 5848 5849 5849
5833 5833 5833 5832 5832 5832 5831 5831 5830 5829 5829 5828 5828 5828 5828 5828 5827 5827 5827 5828 5828 5828 5829 5829 5830 5830 5831 5832 5833 5833 5834 5835 5836 5837 5837 5838 5838 5839 5840 5841 5842 5843 5844
5827 5827 5826 5826 5826 5825 5825 5824 5824 5823 5822 5822 5821 5821 5821 5820 5821 5821 5821 5821 5822 5822 5822 5822 5824 5824 5825 5826 5826 5827 5828 5829 5830 5831 5831 5832 5832 5833 5834 5835 5836 5837 5838
5821 5821 5820 5820 5820 5819 5818 5817 5817 5817 5816 5815 5814 5814 5814 5815 5814 5814 5814 5815 5815 5815 5815 5816 5817 5818 5818 5819 5820 5821 5822 5823 5824 5824 5825 5826 5827 5827 5828 5829 5830 5831 5832
5816 5815 5814 5813 5813 5812 5811 5810 5810 5810 5809 5808 5807 5807 5807 5807 5807 5807 5807 5808 5808 5808 5809 5810 5810 5811 5812 5813 5814 5815 5816 5817 5818 5819 5819 5820 5821 5822 5822 5823 5824 5825 5826
5809 5808 5807 5806 5805 5805 5804 5803 5803 5802 5802 5802 5801 5800 5800 5799 5800 5800 5801 5801 5801 5801 5802 5802 5803 5804 5805 5807 5807 5808 5809 5811 5811 5812 5813 5814 5815 5816 5816 5817 5818 5819 5820
5803 5802 5800 5799 5798 5798 5797 5796 5795 5795 5794 5794 5793 5793 5792 5792 5792 5793 5794 5794 5794 5795 5795 5796 5796 5797 5798 5800 5801 5802 5803 5804 5805 5806 5807 5808 5809 5810 5810 5811 5812 5813 5813
5796 5795 5794 5792 5791 5790 5790 5789 5788 5787 5786 5786 5786 5785 5785 5786 5785 5786 5786 5787 5787 5788 5788 5789 5790 5790 5792 5793 5794 5795 5796 5797 5799 5800 5801 5802 5803 5804 5804 5805 5805 5806 5807
5788 5787 5786 5785 5784 5783 5783 5782 5781 5780 5779 5778 5778 5778 5778 5778 5778 5778 5779 5779 5780 5781 5781 5782 5783 5784 5785 5786 5787 5788 5790 5791 5792 5793 5794 5796 5797 5797 5798 5798 5799 5800 5800
5781 5779 5778 5778 5777 5776 5775 5774 5774 5773 5772 5771 5771 5770 5770 5771 5771 5771 5771 5772 5773 5774 5774 5775 5776 5777 5778 5779 5780 5782 5783 5784 5786 5787 5788 5789 5790 5791 5791 5792 5793 5793 5794
5773 5772 5771 5770 5769 5768 5768 5767 5766 5766 5765 5764 5763 5763 5763 5763 5763 5763 5764 5765 5766 5766 5767 5768 5769 5770 5771 5772 5773 5775 5776 5778 5779 5780 5781 5782 5783 5784 5785 5786 5787 5787 5788
5766 5765 5764 5763 5762 5761 5760 5760 5759 5758 5758 5757 5757 5756 5756 5756 5756 5756 5757 5757 5758 5759 5760 5761 5761 5763 5764 5765 5766 5768 5770 5771 5772 5773 5774 5775 5776 5778 5778 5779 5780 5780 5781
5760 5759 5757 5756 5755 5755 5754 5753 5753 5752 5751 5751 5750 5750 5749 5749 5749 5749 5750 5750 5751 5752 5752 5753 5754 5755 5757 5759 5760 5761 5763 5764 5766 5767 5768 5769 5770 5770 5771 5772 5773 5774 5774
5753 5752 5751 5750 5749 5748 5747 5746 5746 5745 5745 5744 5743 5743 5742 5742 5742 5742 5743 5743 5744 5744 5746 5747 5747 5749 5750 5752 5753 5755 5756 5758 5759 5760 5761 5762 5763 5764 5765 5765 5766 5767 5767
5747 5746 5745 5744 5743 5742 5741 5740 5739 5739 5738 5737 5737 5736 5736 5736 5736 5736 5736 5737 5737 5738 5739 5740 5741 5742 5744 5745 5747 5749 5750 5751 5752 5753 5754 5754 5755 5756 5757 5758 5759 5760 5761
5741 5740 5739 5738 5737 5736 5735 5734 5733 5732 5731 5731 5730 5729 5729 5729 5730 5730 5730 5730 5731 5732 5733 5734 5735 5736 5737 5739 5741 5742 5743 5744 5745 5746 5747 5747 5748 5749 5750 5751 5752 5753 5754
5736 5734 5733 5732 5731 5730 5729 5728 5727 5726 5725 5724 5724 5723 5723 5723 5724 5724 5724 5724 5725 5726 5727 5728 5729 5730 5732 5733 5734 5736 5737 5738 5739 5740 5740 5741 5741 5742 5743 5744 5745 5746 5747
5730 5728 5727 5726 5725 5724 5723 5722 5721 5720 5719 5718 5717 5717 5717 5717 5717 5718 5718 5719 5719 5720 5721 5722 5724 5725 5726 5727 5728 5729 5731 5732 5733 5734 5734 5735 5735 5736 5737 5738 5739 5740 5741
5724 5723 5722 5720 5719 5718 5717 5716 5715 5714 5713 5712 5711 5711 5711 5711 5711 5712 5712 5713 5713 5714 5716 5717 5718 5719 5720 5721 5722 5724 5725 5726 5728 5728 5729 5729 5729 5730 5731 5732 5733 5733 5734
5719 5718 5716 5715 5714 5712 5711 5710 5709 5708 5707 5707 5706 5705 5705 5705 5705 5706 5706 5707 5708 5709 5710 5711 5712 5713 5714 5715 5716 5718 5719 5720 5722 5722 5723 5724 5724 5725 5725 5726 5727 5728 5728
5715 5713 5712 5710 5709 5708 5707 5706 5705 5703 5702 5702 5701 5700 5700 5700 5700 5700 5701 5702 5703 5703 5704 5705 5706 5707 5708 5709 5711 5712 5713 5715 5716 5717 5718 5719 5719 5720 5720 5721 5721 5722 5722
5712 5710 5708 5706 5705 5704 5703 5701 5700 5699 5698 5697 5696 5696 5695 5695 5696 5696 5696 5697 5698 5698 5699 5700 5701 5701 5702 5704 5705 5707 5708 5709 5711 5712 5713 5714 5714 5715 5716 5716 5716 5717 5717